Probability
0 0 0 0 0 0 0 0 0 0 0 0 0 0 0 0 3 0 3 6 6 13 19 23 26 35 58 52 55 45 39 39 39 35 35 23 16 6 6 3 3 3 3 3
0 0 0 0 0 0 0 0 0 0 0 0 0 3 0 0 3 10 10 13 13 13 13 13 16 26 42 42 48 61 45 35 32 29 23 19 13 10 6 0 0 0 0 0
0 0 0 0 0 0 0 0 0 0 0 0 0 0 0 10 23 19 10 13 13 16 10 13 10 23 29 45 39 48 52 39 39 26 23 6 0 0 0 0 3 3 0 0
0 0 0 0 0 0 0 0 0 0 0 0 0 0 0 6 10 16 13 13 13 16 13 10 6 6 10 32 32 39 45 32 35 32 26 16 13 13 6 6 3 3 3 3
0 0 0 0 0 0 0 0 0 0 0 0 0 0 0 3 6 10 10 10 16 13 10 6 6 6 6 16 26 23 23 19 29 32 23 16 16 10 3 3 3 3 3 3
0 0 0 0 0 0 0 0 0 0 0 0 0 0 0 13 13 10 16 13 10 10 6 6 10 10 6 10 13 16 16 10 10 13 19 16 6 3 3 3 3 3 3 3
0 0 0 0 0 0 0 0 0 0 0 0 0 0 0 19 19 16 16 16 6 6 6 10 10 6 6 10 10 6 6 3 3 6 3 6 3 3 0 0 0 0 0 0
0 0 0 0 0 0 0 0 0 0 0 0 0 0 23 13 16 13 6 6 3 3 3 3 3 3 3 3 0 0 0 0 0 0 0 3 3 0 0 0 0 0 0 0
0 0 0 0 0 0 0 0 0 0 0 0 0 0 6 16 10 0 0 0 0 0 0 0 0 0 0 0 0 0 0 0 0 0 0 0 0 0 0 0 0 0 0 0
0 0 0 0 0 0 0 0 0 0 0 0 0 0 3 23 10 0 0 0 0 0 0 0 0 0 0 0 0 0 0 0 0 0 0 0 0 0 0 0 0 0 0 0
0 0 0 0 0 0 0 0 0 0 0 0 0 0 0 0 6 0 0 0 0 0 0 0 0 0 0 0 0 0 0 0 0 0 0 0 0 0 0 0 0 0 0 0
0 0 0 0 0 0 0 0 0 0 0 0 0 0 0 3 0 0 0 0 0 0 0 0 0 0 0 0 0 0 0 0 0 0 0 0 0 0 0 0 0 0 0 0
0 0 0 0 0 0 0 0 0 0 0 0 0 0 6 0 0 3 3 0 0 0 0 0 0 0 0 0 0 0 0 0 0 0 0 0 0 0 0 0 0 0 0 0
0 0 0 0 0 0 0 0 0 0 0 0 0 0 3 3 0 0 0 0 0 0 0 0 0 0 0 0 0 0 0 0 0 0 0 0 0 0 0 0 0 0 0 0
0 0 0 0 0 0 0 0 0 0 0 0 0 0 3 3 0 0 0 0 0 0 0 0 0 0 0 0 0 0 0 0 0 0 0 0 0 0 0 0 0 0 0 0
0 0 0 0 0 0 0 0 0 0 0 0 0 0 0 0 0 0 0 0 0 0 0 0 0 0 0 0 0 0 0 0 0 0 0 0 0 0 0 0 0 0 0 0
0 0 0 0 0 0 0 0 0 0 0 0 0 0 0 0 0 0 0 0 0 0 0 0 0 0 0 0 0 0 0 0 0 0 0 0 0 0 0 0 0 0 0 0
0 0 0 0 0 0 0 0 0 0 0 0 0 0 0 0 0 0 0 0 0 0 0 0 0 0 0 0 0 0 0 0 0 0 0 0 0 0 0 0 0 0 0 0
0 0 0 0 0 0 0 0 0 0 0 0 0 0 0 0 0 0 0 0 0 0 0 0 0 0 0 0 0 0 0 0 0 0 0 0 0 0 0 0 0 0 0 0
0 0 0 0 0 0 0 0 0 0 0 0 0 0 0 0 0 0 0 0 0 0 0 0 0 0 0 0 0 0 0 0 0 0 0 0 0 0 0 0 0 0 0 0
0 0 0 0 0 0 0 0 0 0 0 0 0 0 0 0 0 0 0 0 0 0 0 0 0 0 0 0 0 0 0 0 0 0 0 0 0 0 0 0 0 0 0 0
0 0 0 0 0 0 0 0 0 0 0 0 0 0 0 0 0 0 0 0 0 0 0 0 0 0 0 0 0 0 0 0 0 0 0 0 0 0 0 0 0 0 0 0
0 0 0 0 0 0 0 0 0 0 0 0 0 0 0 0 0 0 0 0 0 0 0 0 0 0 0 0 0 0 0 0 0 0 0 0 0 0 0 0 0 0 0 0
0 0 0 0 0 0 0 0 0 0 0 0 0 0 0 0 0 0 0 0 0 0 0 0 0 0 0 0 0 0 0 0 0 0 0 0 0 0 0 0 0 0 0 0
0 0 0 0 0 0 0 0 0 0 0 0 0 0 0 0 0 0 0 0 0 0 0 0 0 0 0 0 0 0 0 0 0 0 0 0 0 0 0 0 0 0 0 0
0 0 0 0 0 0 0 0 0 0 0 0 0 0 0 0 0 0 0 0 0 0 0 0 0 0 0 0 0 0 0 0 0 0 0 0 0 0 0 0 0 0 0 0
Height
5781 5785 5787 5791 5794 5799 5803 5808 5812 5816 5818 5821 5824 5828 5830 5832 5835 5838 5841 5843 5846 5849 5851 5853 5856 5857 5859 5860 5860 5862 5863 5863 5864 5864 5864 5863 5862 5861 5860 5859 5857 5856 5855 5853
5778 5781 5783 5786 5790 5794 5798 5803 5808 5811 5813 5816 5819 5823 5826 5828 5831 5833 5836 5839 5841 5844 5847 5849 5851 5853 5854 5855 5855 5856 5857 5857 5857 5857 5857 5856 5855 5854 5853 5851 5850 5849 5847 5845
5773 5777 5779 5783 5786 5790 5794 5799 5803 5806 5808 5811 5815 5819 5822 5824 5826 5828 5831 5834 5836 5839 5842 5844 5845 5847 5849 5850 5850 5850 5850 5850 5850 5849 5849 5849 5848 5847 5846 5845 5843 5842 5840 5838
5770 5773 5776 5779 5782 5786 5790 5794 5797 5800 5804 5807 5811 5814 5817 5818 5821 5824 5826 5828 5831 5833 5836 5838 5840 5841 5842 5843 5844 5844 5843 5843 5843 5842 5840 5840 5839 5838 5838 5837 5836 5834 5832 5831
5767 5770 5772 5776 5779 5782 5786 5789 5793 5796 5799 5802 5806 5809 5812 5814 5816 5819 5821 5823 5825 5828 5830 5831 5833 5835 5836 5837 5837 5837 5837 5837 5836 5835 5833 5832 5831 5830 5829 5829 5827 5825 5824 5823
5765 5767 5769 5772 5775 5778 5782 5785 5789 5792 5795 5798 5801 5804 5807 5809 5811 5814 5816 5818 5820 5822 5823 5825 5827 5828 5829 5830 5830 5831 5830 5829 5828 5826 5824 5824 5823 5822 5821 5820 5819 5818 5816 5815
5763 5765 5767 5769 5772 5775 5779 5782 5785 5788 5790 5793 5796 5798 5801 5804 5806 5808 5810 5812 5813 5815 5817 5818 5819 5821 5822 5822 5823 5823 5822 5821 5820 5818 5817 5816 5815 5813 5812 5812 5811 5810 5808 5806
5762 5764 5765 5767 5770 5772 5775 5778 5782 5784 5787 5789 5791 5792 5796 5798 5800 5802 5804 5806 5807 5809 5810 5811 5812 5813 5814 5815 5815 5815 5814 5813 5813 5811 5810 5808 5806 5805 5804 5804 5803 5801 5800 5798
5760 5762 5763 5765 5767 5770 5772 5774 5777 5780 5781 5784 5785 5788 5790 5792 5794 5796 5798 5799 5800 5801 5803 5804 5804 5805 5806 5806 5806 5806 5805 5804 5804 5803 5802 5800 5798 5796 5795 5794 5793 5791 5790 5788
5759 5761 5762 5763 5765 5766 5769 5770 5773 5775 5776 5778 5780 5782 5785 5787 5788 5789 5791 5792 5793 5794 5795 5795 5796 5796 5796 5796 5796 5796 5796 5795 5795 5794 5793 5791 5790 5788 5787 5785 5784 5782 5780 5778
5758 5759 5760 5761 5762 5763 5765 5767 5768 5770 5772 5773 5775 5779 5779 5781 5782 5783 5783 5784 5785 5785 5786 5786 5786 5786 5786 5787 5786 5786 5786 5785 5784 5784 5783 5781 5780 5778 5777 5776 5775 5772 5770 5768
5756 5757 5758 5759 5759 5760 5761 5763 5764 5766 5767 5768 5770 5774 5773 5774 5774 5775 5775 5776 5776 5777 5777 5777 5777 5777 5777 5777 5776 5776 5775 5775 5774 5774 5773 5772 5770 5769 5767 5765 5764 5761 5759 5757
5755 5756 5756 5757 5759 5758 5758 5759 5760 5761 5762 5763 5764 5768 5766 5766 5767 5767 5767 5768 5768 5768 5769 5769 5769 5768 5768 5767 5767 5766 5765 5765 5764 5763 5763 5762 5761 5759 5757 5755 5753 5751 5749 5746
5754 5754 5755 5755 5754 5754 5754 5754 5755 5756 5756 5757 5758 5759 5759 5759 5759 5759 5759 5759 5759 5760 5760 5760 5760 5760 5759 5758 5757 5757 5756 5755 5754 5754 5753 5752 5750 5749 5747 5745 5742 5740 5738 5735
5753 5752 5751 5751 5751 5751 5750 5750 5750 5751 5751 5752 5752 5752 5753 5752 5752 5752 5752 5752 5752 5752 5752 5752 5751 5751 5750 5750 5749 5748 5747 5746 5745 5744 5743 5742 5740 5739 5737 5734 5732 5729 5727 5724
5751 5750 5749 5749 5748 5747 5747 5746 5746 5746 5746 5746 5746 5746 5746 5745 5744 5744 5744 5744 5744 5744 5743 5743 5743 5742 5742 5741 5740 5739 5738 5738 5737 5736 5734 5733 5731 5729 5727 5724 5721 5719 5716 5712
5749 5749 5747 5746 5744 5744 5743 5743 5742 5741 5740 5740 5740 5741 5739 5739 5738 5737 5737 5736 5736 5736 5736 5735 5734 5734 5733 5732 5732 5731 5730 5730 5728 5727 5725 5723 5722 5720 5717 5714 5711 5708 5705 5701
5748 5747 5745 5743 5742 5741 5742 5738 5737 5737 5736 5735 5734 5733 5733 5732 5731 5730 5729 5729 5729 5729 5728 5727 5727 5726 5726 5725 5724 5723 5722 5721 5720 5719 5717 5715 5713 5710 5707 5705 5702 5698 5694 5690
5747 5745 5743 5741 5739 5738 5737 5734 5733 5732 5731 5730 5729 5728 5726 5725 5725 5724 5723 5723 5722 5722 5721 5721 5720 5720 5719 5718 5717 5716 5715 5714 5712 5711 5709 5706 5704 5701 5699 5695 5692 5688 5684 5679
5745 5743 5741 5738 5736 5734 5734 5731 5729 5729 5727 5726 5724 5722 5721 5720 5720 5720 5718 5717 5717 5716 5715 5714 5714 5713 5712 5711 5710 5709 5707 5706 5704 5702 5701 5698 5696 5693 5690 5686 5683 5678 5674 5669
5745 5742 5740 5737 5734 5732 5730 5728 5726 5726 5725 5721 5719 5718 5717 5716 5715 5714 5713 5712 5711 5710 5709 5709 5708 5707 5706 5705 5704 5702 5700 5699 5697 5695 5693 5691 5688 5685 5682 5678 5674 5670 5665 5660
5744 5741 5738 5735 5732 5732 5727 5725 5724 5722 5719 5717 5716 5714 5713 5712 5710 5709 5708 5707 5706 5705 5704 5704 5703 5702 5700 5699 5698 5696 5694 5693 5691 5689 5686 5684 5681 5678 5675 5671 5667 5663 5658 5654
5743 5740 5737 5734 5733 5728 5725 5723 5720 5718 5716 5714 5713 5711 5709 5708 5707 5705 5704 5703 5702 5701 5700 5699 5698 5697 5695 5694 5693 5691 5689 5687 5685 5683 5680 5678 5675 5672 5668 5665 5661 5657 5653 5649
5742 5738 5735 5732 5729 5726 5723 5721 5718 5716 5714 5712 5710 5708 5706 5705 5703 5702 5700 5699 5698 5697 5696 5695 5693 5692 5691 5689 5688 5686 5684 5682 5680 5677 5675 5672 5669 5666 5662 5659 5655 5652 5648 5644
5741 5737 5734 5731 5728 5725 5722 5719 5716 5714 5711 5709 5707 5705 5703 5701 5700 5698 5697 5696 5695 5694 5692 5691 5689 5688 5686 5685 5683 5681 5679 5677 5674 5672 5669 5666 5663 5660 5657 5654 5651 5648 5644 5641
5739 5736 5733 5730 5726 5723 5720 5717 5714 5712 5710 5707 5705 5703 5700 5699 5697 5696 5694 5693 5692 5690 5689 5687 5686 5684 5682 5681 5679 5677 5675 5672 5670 5667 5664 5661 5658 5656 5653 5650 5647 5644 5641 5638
Wind_Speed
20 22 24 26 28 30 32 31 30 29 30 30 30 29 32 33 33 32 32 31 29 27 26 24 22 21 21 21 21 20 21 22 22 23 22 23 23 25 26 26 27 27 28 30
20 22 23 24 27 28 30 31 30 29 31 31 31 30 31 33 34 33 33 32 31 30 29 27 25 24 23 24 24 23 24 24 25 26 27 28 28 28 29 30 29 29 30 31
19 21 23 24 25 26 27 28 29 28 31 32 31 31 31 33 33 33 33 33 33 33 31 30 29 27 27 26 26 26 26 27 28 29 30 29 30 31 31 32 32 32 32 33
17 19 21 23 24 25 25 26 28 29 31 32 32 31 31 32 32 32 32 32 32 33 32 31 31 30 29 29 28 28 29 30 31 32 32 32 32 32 33 33 35 36 36 35
16 18 20 22 23 23 23 25 27 29 30 31 31 32 31 31 31 31 31 31 31 32 33 32 31 31 31 31 30 31 31 33 34 35 34 34 35 35 35 36 38 38 37 36
14 16 18 20 22 23 23 26 27 29 30 31 31 32 32 31 31 31 31 31 31 32 33 33 33 33 33 33 32 33 34 36 36 36 35 36 36 37 36 37 37 37 37 38
12 14 16 18 20 22 23 25 26 28 30 30 30 32 32 31 31 31 32 32 33 33 34 35 35 35 35 35 35 36 37 39 39 39 38 38 37 37 37 38 38 39 38 38
11 13 14 16 18 20 21 23 25 28 30 31 31 32 31 31 31 32 32 34 34 35 36 37 38 38 38 38 38 39 40 40 40 41 41 40 39 39 39 40 40 40 40 40
10 11 13 15 17 19 20 22 24 27 29 31 32 33 32 32 32 33 33 34 35 36 37 38 40 41 41 41 42 42 42 42 42 41 41 42 42 42 42 42 42 42 42 42
9 11 12 15 17 19 20 22 23 26 27 30 32 33 34 33 33 33 34 34 35 36 37 38 39 41 41 42 43 44 44 44 45 44 44 44 44 44 45 45 45 44 43 42
8 10 11 13 16 17 19 21 23 25 26 28 31 32 32 33 34 34 35 36 36 37 38 39 39 40 41 42 43 44 44 44 44 44 43 44 44 45 45 46 45 45 44 44
7 9 11 13 14 15 18 19 21 24 26 27 29 30 30 31 32 33 35 36 37 38 38 38 39 40 40 41 41 41 42 43 43 44 43 43 43 43 44 44 44 45 46 47
6 9 10 12 13 14 16 18 20 22 24 25 27 29 29 31 31 33 34 36 36 37 37 38 38 38 38 38 38 38 39 39 41 42 43 43 43 42 43 45 46 46 47 48
7 8 9 11 12 14 16 18 20 21 23 25 26 27 28 30 31 33 34 35 36 36 37 36 36 36 35 34 35 35 36 36 37 38 39 40 41 42 43 43 44 45 47 49
9 9 10 11 12 13 15 16 18 21 22 23 25 26 27 28 30 31 32 33 34 34 34 34 34 34 33 33 33 33 34 35 35 35 36 37 38 39 41 41 43 44 46 47
8 9 10 11 12 13 14 15 17 19 21 23 24 25 26 27 28 29 30 31 32 33 32 32 31 31 31 30 29 29 29 30 31 32 34 35 37 38 39 40 42 43 45 47
8 9 10 11 12 13 13 14 15 17 18 20 22 24 25 25 26 28 28 28 29 29 29 29 29 28 28 27 27 27 27 27 29 30 31 32 34 35 37 39 41 42 44 46
10 11 11 12 12 13 13 14 15 16 18 19 20 21 21 22 24 24 24 24 24 25 26 27 26 25 25 25 25 24 25 26 28 29 30 31 33 35 36 38 39 41 43 45
11 11 12 12 12 12 13 13 14 15 16 17 18 19 20 20 20 21 23 22 21 22 23 23 23 24 24 25 24 25 26 27 28 29 30 31 32 33 35 36 38 40 42 44
12 12 12 13 13 14 14 13 14 14 14 15 16 17 17 16 17 17 17 17 18 20 21 22 22 22 23 23 24 25 25 26 27 28 29 30 31 32 33 34 36 38 39 41
13 13 13 14 14 14 14 14 13 13 13 13 14 14 14 14 15 16 17 18 18 19 19 19 20 20 21 22 23 24 24 25 26 27 27 28 29 30 31 32 33 35 35 36
13 14 14 14 14 15 14 13 13 13 13 13 13 13 13 14 15 15 15 16 16 16 17 17 18 19 20 21 21 21 22 23 23 24 25 26 27 28 29 29 30 29 29 29
14 15 15 15 15 15 14 13 13 13 13 13 13 13 13 13 13 14 14 14 14 14 15 16 17 18 18 19 20 20 20 21 22 22 23 25 25 26 26 26 26 26 25 25
15 16 16 16 16 15 14 14 14 14 13 13 12 12 13 13 13 13 12 12 13 14 14 15 16 16 17 18 18 18 18 19 20 22 23 23 24 24 23 23 23 23 23 23
15 16 16 16 16 16 15 14 14 13 13 12 11 11 12 12 12 12 12 12 12 13 13 14 14 15 16 16 16 17 17 19 20 21 21 22 21 21 21 21 21 21 20 20
16 17 17 16 17 16 16 15 14 13 13 12 12 12 11 11 11 11 11 11 12 13 13 14 14 14 14 15 15 16 17 18 19 19 19 19 19 18 18 18 17 17 17 17
Wind_Direction
230 226 224 225 226 227 227 226 225 226 229 231 231 230 230 236 239 240 241 242 243 242 242 243 244 244 246 248 249 251 255 256 258 260 262 265 267 268 270 272 274 274 276 276
231 228 225 226 226 227 227 226 225 227 229 232 233 233 233 237 240 242 242 242 243 243 244 244 245 244 248 253 252 251 255 260 261 262 263 265 267 268 272 274 276 277 279 280
232 229 227 227 225 225 226 227 224 224 229 233 234 234 234 237 238 240 242 243 243 244 245 245 246 246 247 251 254 252 254 258 261 261 262 266 270 272 275 277 279 281 283 285
230 227 226 226 225 224 225 225 223 223 227 232 233 234 234 235 236 238 241 242 243 244 243 244 246 247 249 252 255 258 258 258 262 264 266 270 272 273 277 281 283 283 283 285
228 228 228 227 226 225 224 224 222 222 226 230 232 233 233 235 237 238 240 242 243 243 243 244 246 249 251 253 256 260 262 264 265 267 270 271 275 278 280 283 284 286 286 287
227 227 226 225 225 223 221 223 223 224 226 229 231 233 232 234 236 239 241 243 243 243 244 245 248 251 253 254 255 258 262 265 267 268 270 272 275 277 281 284 286 289 288 287
226 227 225 224 224 224 222 224 225 226 227 229 231 234 234 235 237 238 240 242 244 245 247 248 250 252 254 256 258 260 263 267 269 271 273 276 277 280 284 286 287 290 290 290
223 226 226 224 226 227 224 227 229 231 231 232 233 236 236 237 238 240 242 245 247 250 251 252 253 255 256 258 261 263 265 268 270 272 275 279 281 281 284 286 288 290 291 291
223 223 225 225 228 230 230 229 231 234 236 237 238 239 240 241 242 243 246 248 250 252 254 256 258 260 261 263 264 265 266 269 271 274 277 278 281 282 284 286 288 289 290 291
222 227 231 231 232 233 234 232 233 235 239 240 242 242 244 245 247 248 249 251 254 257 258 258 260 262 264 266 267 267 270 270 272 274 275 276 278 281 281 282 286 288 290 289
227 233 237 237 238 240 239 237 238 241 244 245 247 248 249 251 252 253 254 257 259 262 262 263 263 264 266 268 270 271 271 272 271 272 275 276 277 279 280 282 284 286 286 286
244 241 242 244 244 244 242 242 244 247 249 250 251 253 254 256 256 257 260 262 263 265 267 268 269 268 270 272 273 272 272 273 273 273 274 277 278 278 279 281 283 284 285 287
263 254 255 254 254 252 251 248 248 250 253 255 256 258 257 259 261 261 262 264 265 267 269 271 273 274 276 276 277 274 274 274 274 273 273 276 277 278 280 282 283 284 285 286
285 275 269 269 267 264 262 257 254 254 255 256 258 261 262 262 263 264 265 267 268 270 271 273 274 275 277 276 275 275 275 274 275 276 275 275 276 278 281 283 283 283 285 287
299 292 284 281 277 272 269 265 261 259 260 261 263 264 266 267 266 266 268 270 271 272 274 276 277 277 276 277 275 274 274 275 275 276 276 278 281 282 282 283 283 285 286 287
311 304 297 291 285 281 278 273 269 268 267 267 267 268 270 271 269 269 270 271 271 272 273 275 276 277 277 277 276 276 276 276 276 277 279 279 280 280 282 283 284 285 287 289
319 316 313 304 298 292 286 280 276 275 274 272 269 271 273 273 272 272 270 268 270 272 273 273 275 275 278 279 279 279 280 279 279 280 280 279 280 281 283 285 286 287 290 291
323 320 318 313 308 299 297 292 286 280 277 278 276 274 274 276 274 271 271 271 271 270 271 271 274 277 279 280 281 280 278 278 279 280 281 282 283 284 285 287 289 291 292 292
335 331 328 324 318 311 306 300 294 288 284 284 284 282 280 276 274 269 270 273 271 268 271 274 277 279 280 280 281 280 279 279 282 284 286 288 288 289 291 293 294 295 296 297
343 340 336 333 327 320 314 308 301 297 293 293 290 287 285 282 278 276 275 273 272 273 274 277 277 276 276 277 279 280 281 283 285 288 289 291 292 294 296 298 299 300 300 301
346 344 339 334 330 327 323 316 311 307 304 298 295 292 289 284 280 279 279 278 276 274 275 275 275 275 274 277 280 283 285 287 288 289 292 294 296 298 300 302 304 305 306 307
349 346 343 340 335 332 328 323 318 314 311 306 302 298 292 287 285 284 283 282 278 276 276 276 278 279 282 284 286 288 290 291 293 294 296 298 300 302 304 307 309 311 313 314
349 347 345 343 339 334 330 327 323 319 314 309 306 301 295 290 288 286 284 282 280 279 280 280 281 284 286 289 291 292 294 296 297 299 301 302 304 306 308 311 313 316 318 319
349 347 345 343 341 336 332 329 326 322 317 314 309 304 298 295 293 291 289 287 286 286 286 287 289 290 292 293 295 296 298 300 302 303 304 305 306 308 310 312 315 318 320 322
348 347 345 343 340 339 337 332 328 325 323 320 316 311 307 305 302 299 296 293 292 293 293 294 295 296 297 297 298 300 303 306 307 308 308 308 308 310 313 315 318 321 323 325
347 346 345 342 341 341 341 339 336 334 331 327 322 318 315 311 309 306 304 302 300 299 299 300 300 300 301 302 303 305 307 310 312 313 312 311 312 315 318 320 323 325 327 329